Weather History for Jefferson City, MO

Change the Weather History Date:

Saturday, June 22, 2013

  Actual Average Record
Temperature  
Mean Temperature 83 °F -  
Max Temperature 91 °F 85 °F 100 °F (1933)
Min Temperature 75 °F 61 °F 46 °F (1958)
Cooling Degree Days 18    
Growing Degree Days 33 (Base 50)    
Moisture  
Dew Point 69 °F    
Average Humidity 65    
Maximum Humidity 82    
Minimum Humidity 48    
Precipitation  
Precipitation 0.00 in - - ()
Sea Level Pressure  
Sea Level Pressure 29.97 in    
Wind  
Wind Speed 8 mph (SSE)    
Max Wind Speed 14 mph    
Max Gust Speed 22 mph    
Visibility 10 miles    
Events      
Averages and records for this station are not official NWS values.
T = Trace of Precipitation, MM = Missing Value Source: NWS Daily Summary

Daily Weather History Graph

Daily Weather History Graph

Search for Another Location

Airport:

Trip Planner

Search our weather history database for the weather conditions in past years. The results will help you decide how hot, cold, wet, or windy it might be!

Date:

Astronomy

Jun. 22, 2013 Rise Set
Actual Time 5:44 AM CDT 8:36 PM CDT
Civil Twilight 5:12 AM CDT 9:08 PM CDT
Nautical Twilight 4:32 AM CDT 9:48 PM CDT
Astronomical Twilight 3:46 AM CDT 10:34 PM CDT
Moon 7:52 PM CDT (6/22) 4:57 AM CDT (6/22)
Length of Visible Light 15h 55m
Length of Day
14h 51m
Waxing Gibbous, 99% of the Moon is Illuminated
Jun 22
Waxing Gibbous
Jun 23
Full
Jun 29
Last Quarter
Jul 8
New
Jul 15
First Quarter

Hourly Weather History & Observations

Time (CDT) Temp. Heat Index Dew Point Humidity Pressure Visibility Wind Dir Wind Speed Gust Speed Precip Events Conditions
12:53 AM 81.0 °F 84.4 °F 70.0 °F 69% 29.97 in 10.0 mi SE 6.9 mph - N/A   Clear
1:53 AM 79.0 °F - 70.0 °F 74% 29.98 in 10.0 mi ESE 5.8 mph - N/A   Clear
2:53 AM 78.1 °F - 70.0 °F 76% 29.96 in 10.0 mi ESE 6.9 mph - N/A   Clear
3:53 AM 77.0 °F - 70.0 °F 79% 29.95 in 10.0 mi SE 5.8 mph - N/A   Clear
4:53 AM 75.9 °F - 69.1 °F 79% 29.98 in 10.0 mi East 5.8 mph - N/A   Clear
5:53 AM 75.9 °F - 69.1 °F 79% 29.99 in 10.0 mi East 5.8 mph - N/A   Clear
6:53 AM 75.0 °F - 69.1 °F 82% 29.99 in 10.0 mi SE 4.6 mph - N/A   Clear
7:53 AM 78.1 °F - 70.0 °F 76% 30.01 in 10.0 mi SSE 6.9 mph - N/A   Clear
8:53 AM 81.0 °F 84.9 °F 71.1 °F 72% 30.01 in 10.0 mi South 8.1 mph - N/A   Clear
9:53 AM 82.9 °F 87.5 °F 71.1 °F 67% 30.02 in 10.0 mi South 6.9 mph - N/A   Clear
10:53 AM 86.0 °F 90.7 °F 70.0 °F 59% 30.03 in 10.0 mi South 6.9 mph - N/A   Clear
11:53 AM 87.1 °F 92.8 °F 71.1 °F 59% 30.01 in 10.0 mi South 9.2 mph - N/A   Clear
12:53 PM 88.0 °F 93.8 °F 71.1 °F 57% 30.01 in 10.0 mi South 10.4 mph - N/A   Clear
1:53 PM 89.1 °F 94.1 °F 70.0 °F 53% 29.99 in 10.0 mi SSW 9.2 mph - N/A   Clear
2:53 PM 90.0 °F 96.4 °F 71.1 °F 54% 29.94 in 10.0 mi South 10.4 mph 18.4 mph N/A   Partly Cloudy
3:53 PM 90.0 °F 95.4 °F 70.0 °F 52% 29.92 in 10.0 mi South 9.2 mph - N/A   Scattered Clouds
4:53 PM 91.0 °F 95.6 °F 69.1 °F 48% 29.92 in 10.0 mi SSE 11.5 mph - N/A   Partly Cloudy
5:53 PM 89.1 °F 94.1 °F 70.0 °F 53% 29.91 in 10.0 mi SSE 8.1 mph - N/A   Partly Cloudy
6:53 PM 86.0 °F 90.7 °F 70.0 °F 59% 29.90 in 10.0 mi SSE 13.8 mph 21.9 mph N/A   Clear
7:53 PM 82.9 °F 85.4 °F 66.9 °F 58% 29.94 in 10.0 mi SE 10.4 mph 20.7 mph N/A   Clear
8:53 PM 80.1 °F 82.1 °F 66.0 °F 62% 29.95 in 10.0 mi SE 13.8 mph - N/A   Clear
9:53 PM 78.1 °F - 64.9 °F 64% 29.97 in 10.0 mi SE 12.7 mph - N/A   Clear
10:53 PM 77.0 °F - 64.9 °F 66% 29.98 in 10.0 mi SE 12.7 mph 19.6 mph N/A   Clear
11:53 PM 75.9 °F - 64.0 °F 67% 29.96 in 10.0 mi South 5.8 mph - N/A   Clear